When you browse on this site, cookies collect data to enhance your experience and personalize the content and advertising you see.
Visit our Privacy Policy to learn more. By continuing to use the site, you agree to this use of cookies and data.
  • In Hungary
  • List of Countries
  • For 7 days
  • Water Temperature
  • Satellite Maps
  • Weather Map
  • News
  • Weather Widgets
  • user-avatar
    Login

    Hourly Weather Messina

    Today, 18 June, Tuesday

    Time Temperature Precipitation Wind Pressure Humidity
    00:00 +24°C° 0 mm 1 mps 755 mmHg 77%
    01:00 +24°C° 0 mm 1 mps 755 mmHg 75%
    02:00 +24°C° 0 mm 2 mps 755 mmHg 75%
    03:00 +24°C° 0 mm 2 mps 755 mmHg 75%
    04:00 +23°C° 0 mm 2 mps 755 mmHg 75%
    05:00 +25°C° 0 mm 2 mps 755 mmHg 70%
    06:00 +26°C° 0 mm 2 mps 755 mmHg 65%
    07:00 +28°C° 0 mm 2 mps 756 mmHg 60%
    08:00 +29°C° 0 mm 2 mps 756 mmHg 55%
    09:00 +31°C° 0 mm 2 mps 756 mmHg 51%
    10:00 +32°C° 0 mm 2 mps 756 mmHg 47%
    11:00 +32°C° 0 mm 2 mps 756 mmHg 47%
    12:00 +34°C° 0 mm 2 mps 756 mmHg 46%
    13:00 +34°C° 0 mm 3 mps 756 mmHg 46%
    14:00 +32°C° 0.2 mm 2 mps 755 mmHg 49%
    15:00 +32°C° 0.2 mm 2 mps 755 mmHg 52%
    16:00 +31°C° 0.2 mm 2 mps 755 mmHg 55%
    17:00 +29°C° 0.1 mm 2 mps 755 mmHg 63%
    18:00 +27°C° 0.1 mm 2 mps 755 mmHg 72%
    19:00 +25°C° 0.1 mm 2 mps 755 mmHg 80%
    20:00 +25°C° 0 mm 2 mps 756 mmHg 79%
    21:00 +24°C° 0 mm 2 mps 756 mmHg 78%
    22:00 +24°C° 0 mm 2 mps 756 mmHg 77%
    23:00 +24°C° 0 mm 2 mps 756 mmHg 76%

    Tomorrow, 19 June, Wednesday

    Time Temperature Precipitation Wind Pressure Humidity
    00:00 +24°C° 0 mm 2 mps 756 mmHg 75%
    01:00 +24°C° 0 mm 2 mps 756 mmHg 75%
    02:00 +24°C° 0 mm 2 mps 755 mmHg 75%
    03:00 +23°C° 0 mm 2 mps 755 mmHg 76%
    04:00 +23°C° 0 mm 2 mps 755 mmHg 76%
    05:00 +24°C° 0 mm 2 mps 755 mmHg 72%
    06:00 +26°C° 0 mm 2 mps 755 mmHg 69%
    07:00 +27°C° 0 mm 2 mps 755 mmHg 65%
    08:00 +28°C° 0 mm 2 mps 755 mmHg 61%
    09:00 +30°C° 0 mm 2 mps 756 mmHg 56%
    10:00 +31°C° 0 mm 2 mps 756 mmHg 52%
    11:00 +31°C° 0 mm 2 mps 756 mmHg 51%
    12:00 +32°C° 0 mm 2 mps 755 mmHg 51%
    13:00 +32°C° 0 mm 2 mps 755 mmHg 50%
    14:00 +31°C° 0 mm 2 mps 755 mmHg 52%
    15:00 +31°C° 0 mm 2 mps 755 mmHg 53%
    16:00 +30°C° 0 mm 2 mps 755 mmHg 54%
    17:00 +29°C° 0 mm 2 mps 755 mmHg 60%
    18:00 +27°C° 0 mm 2 mps 755 mmHg 67%
    19:00 +25°C° 0 mm 2 mps 755 mmHg 74%
    20:00 +24°C° 0 mm 2 mps 755 mmHg 74%
    21:00 +23°C° 0 mm 2 mps 755 mmHg 74%
    22:00 +21°C° 0 mm 2 mps 756 mmHg 74%
    23:00 +21°C° 0 mm 2 mps 755 mmHg 70%

    Day after tomorrow, 20 June, Thursday

    Time Temperature Precipitation Wind Pressure Humidity
    00:00 +21°C° 0 mm 2 mps 755 mmHg 66%
    01:00 +21°C° 0 mm 2 mps 755 mmHg 62%
    02:00 +21°C° 0 mm 2 mps 755 mmHg 59%
    03:00 +21°C° 0 mm 3 mps 755 mmHg 55%
    04:00 +21°C° 0 mm 3 mps 755 mmHg 52%
    05:00 +24°C° 0 mm 3 mps 755 mmHg 51%
    06:00 +25°C° 0 mm 2 mps 755 mmHg 50%
    07:00 +27°C° 0 mm 2 mps 756 mmHg 49%
    08:00 +28°C° 0 mm 3 mps 756 mmHg 47%
    09:00 +30°C° 0 mm 3 mps 756 mmHg 45%
    10:00 +31°C° 0 mm 3 mps 756 mmHg 43%
    11:00 +33°C° 0 mm 3 mps 756 mmHg 43%
    12:00 +33°C° 0 mm 3 mps 756 mmHg 42%
    13:00 +34°C° 0 mm 3 mps 756 mmHg 41%
    14:00 +33°C° 0 mm 3 mps 756 mmHg 42%
    15:00 +33°C° 0 mm 3 mps 755 mmHg 43%
    16:00 +33°C° 0 mm 3 mps 755 mmHg 44%
    17:00 +30°C° 0 mm 2 mps 755 mmHg 52%
    18:00 +28°C° 0 mm 2 mps 755 mmHg 59%
    19:00 +26°C° 0 mm 2 mps 755 mmHg 67%
    20:00 +26°C° 0 mm 2 mps 756 mmHg 62%
    21:00 +25°C° 0 mm 2 mps 756 mmHg 57%
    22:00 +25°C° 0 mm 2 mps 756 mmHg 52%
    23:00 +25°C° 0 mm 2 mps 756 mmHg 48%

    21 June, Friday

    Time Temperature Precipitation Wind Pressure Humidity
    00:00 +25°C° 0 mm 2 mps 756 mmHg 44%
    01:00 +25°C° 0 mm 2 mps 756 mmHg 40%
    02:00 +25°C° 0 mm 2 mps 756 mmHg 39%
    03:00 +25°C° 0 mm 2 mps 756 mmHg 38%
    04:00 +25°C° 0 mm 2 mps 755 mmHg 36%
    05:00 +27°C° 0 mm 2 mps 756 mmHg 36%
    06:00 +29°C° 0 mm 2 mps 756 mmHg 35%
    07:00 +30°C° 0 mm 2 mps 756 mmHg 34%
    08:00 +32°C° 0 mm 2 mps 756 mmHg 31%
    09:00 +34°C° 0 mm 2 mps 756 mmHg 27%
    10:00 +36°C° 0 mm 2 mps 756 mmHg 24%
    11:00 +37°C° 0 mm 2 mps 756 mmHg 23%
    12:00 +37°C° 0 mm 3 mps 756 mmHg 23%
    13:00 +37°C° 0 mm 3 mps 756 mmHg 23%
    14:00 +37°C° 0 mm 2 mps 756 mmHg 23%
    15:00 +36°C° 0 mm 2 mps 756 mmHg 24%
    16:00 +35°C° 0 mm 1 mps 756 mmHg 24%
    17:00 +33°C° 0 mm 1 mps 756 mmHg 31%
    18:00 +30°C° 0 mm 2 mps 756 mmHg 38%
    19:00 +28°C° 0 mm 2 mps 756 mmHg 44%
    20:00 +28°C° 0 mm 2 mps 756 mmHg 41%
    21:00 +28°C° 0 mm 1 mps 756 mmHg 38%
    22:00 +27°C° 0 mm 1 mps 756 mmHg 35%
    23:00 +27°C° 0 mm 1 mps 756 mmHg 35%

    22 June, Saturday

    Time Temperature Precipitation Wind Pressure Humidity
    00:00 +27°C° 0 mm 1 mps 756 mmHg 35%
    01:00 +28°C° 0 mm 1 mps 756 mmHg 35%
    02:00 +28°C° 0 mm 1 mps 756 mmHg 35%
    03:00 +28°C° 0 mm 1 mps 755 mmHg 35%
    04:00 +28°C° 0 mm 1 mps 755 mmHg 35%
    05:00 +30°C° 0 mm 1 mps 755 mmHg 34%
    06:00 +32°C° 0 mm 1 mps 755 mmHg 34%
    07:00 +34°C° 0 mm 1 mps 756 mmHg 33%
    08:00 +35°C° 0 mm 1 mps 756 mmHg 30%
    09:00 +37°C° 0 mm 1 mps 756 mmHg 26%
    10:00 +40°C° 0 mm 1 mps 756 mmHg 23%
    11:00 +40°C° 0 mm 1 mps 756 mmHg 23%
    12:00 +40°C° 0 mm 1 mps 756 mmHg 23%
    13:00 +40°C° 0 mm 1 mps 756 mmHg 23%
    14:00 +40°C° 0 mm 1 mps 756 mmHg 23%
    15:00 +40°C° 0 mm 2 mps 756 mmHg 23%
    16:00 +40°C° 0 mm 2 mps 756 mmHg 24%
    17:00 +37°C° 0 mm 2 mps 756 mmHg 31%
    18:00 +34°C° 0 mm 2 mps 756 mmHg 38%
    19:00 +31°C° 0 mm 1 mps 756 mmHg 45%
    20:00 +30°C° 0 mm 1 mps 756 mmHg 42%
    21:00 +30°C° 0 mm 1 mps 756 mmHg 39%
    22:00 +30°C° 0 mm 1 mps 757 mmHg 36%
    23:00 +30°C° 0 mm 1 mps 757 mmHg 35%

    23 June, Sunday

    Time Temperature Precipitation Wind Pressure Humidity
    00:00 +30°C° 0 mm 1 mps 757 mmHg 34%
    01:00 +30°C° 0 mm 1 mps 756 mmHg 33%
    02:00 +30°C° 0 mm 1 mps 756 mmHg 34%
    03:00 +30°C° 0 mm 2 mps 756 mmHg 35%
    04:00 +29°C° 0 mm 2 mps 756 mmHg 36%
    05:00 +31°C° 0 mm 2 mps 756 mmHg 34%
    06:00 +34°C° 0 mm 2 mps 757 mmHg 32%
    07:00 +36°C° 0 mm 2 mps 757 mmHg 30%
    08:00 +37°C° 0 mm 2 mps 757 mmHg 28%
    09:00 +39°C° 0 mm 2 mps 757 mmHg 26%
    10:00 +40°C° 0 mm 2 mps 758 mmHg 23%
    11:00 +42°C° 0 mm 3 mps 758 mmHg 22%
    12:00 +43°C° 0 mm 3 mps 757 mmHg 20%
    13:00 +43°C° 0 mm 3 mps 757 mmHg 19%
    14:00 +43°C° 0 mm 3 mps 757 mmHg 19%
    15:00 +43°C° 0 mm 3 mps 757 mmHg 19%
    16:00 +42°C° 0 mm 3 mps 757 mmHg 19%
    17:00 +39°C° 0 mm 2 mps 757 mmHg 23%
    18:00 +36°C° 0 mm 2 mps 757 mmHg 26%
    19:00 +34°C° 0 mm 2 mps 757 mmHg 30%
    20:00 +34°C° 0 mm 2 mps 758 mmHg 29%
    21:00 +34°C° 0 mm 2 mps 758 mmHg 27%
    22:00 +32°C° 0 mm 2 mps 758 mmHg 26%
    23:00 +32°C° 0 mm 2 mps 758 mmHg 25%
    Show more